QPF
0.00 0.00 0.00 0.00 0.00 0.00 0.00 0.00 0.00 0.00 0.00 0.00 0.00 0.00 0.00 0.00 0.00 0.00 0.00 0.00 0.00 0.00 0.00 0.00 0.00 0.00 0.00 0.00 0.00 0.01 0.02 0.02 0.02 0.02 0.02 0.03 0.03 0.04 0.04 0.05 0.06 0.09 0.12 0.12 0.11 0.08 0.07 0.07 0.08
0.00 0.00 0.00 0.00 0.00 0.00 0.00 0.00 0.00 0.00 0.00 0.00 0.00 0.00 0.00 0.00 0.00 0.00 0.00 0.00 0.00 0.00 0.00 0.00 0.00 0.00 0.00 0.00 0.01 0.01 0.01 0.01 0.01 0.01 0.02 0.02 0.03 0.03 0.04 0.05 0.06 0.10 0.10 0.10 0.07 0.06 0.06 0.06 0.07
0.00 0.00 0.00 0.00 0.00 0.00 0.00 0.00 0.00 0.00 0.00 0.00 0.00 0.00 0.00 0.00 0.00 0.00 0.00 0.00 0.00 0.00 0.00 0.00 0.00 0.00 0.00 0.00 0.01 0.01 0.01 0.01 0.01 0.01 0.01 0.02 0.02 0.03 0.04 0.05 0.06 0.09 0.10 0.09 0.05 0.05 0.06 0.05 0.06
0.00 0.00 0.00 0.00 0.00 0.00 0.00 0.00 0.00 0.00 0.00 0.00 0.00 0.00 0.00 0.00 0.00 0.00 0.00 0.00 0.00 0.00 0.00 0.00 0.00 0.00 0.00 0.00 0.00 0.01 0.01 0.01 0.01 0.01 0.01 0.01 0.02 0.03 0.04 0.06 0.07 0.08 0.08 0.06 0.05 0.04 0.05 0.05 0.05
0.00 0.00 0.00 0.00 0.00 0.00 0.00 0.00 0.00 0.00 0.00 0.00 0.00 0.00 0.00 0.00 0.00 0.00 0.00 0.00 0.00 0.00 0.00 0.00 0.00 0.01 0.01 0.00 0.00 0.01 0.01 0.01 0.01 0.01 0.01 0.01 0.01 0.02 0.03 0.04 0.07 0.08 0.09 0.08 0.06 0.05 0.05 0.05 0.05
0.00 0.00 0.00 0.00 0.00 0.00 0.00 0.00 0.00 0.00 0.00 0.00 0.00 0.00 0.00 0.00 0.00 0.00 0.00 0.00 0.00 0.00 0.00 0.00 0.00 0.01 0.01 0.00 0.00 0.00 0.00 0.01 0.01 0.01 0.00 0.00 0.00 0.02 0.02 0.03 0.05 0.07 0.08 0.09 0.09 0.07 0.06 0.04 0.04
0.00 0.00 0.00 0.00 0.00 0.00 0.00 0.00 0.00 0.00 0.00 0.00 0.00 0.00 0.00 0.00 0.00 0.00 0.00 0.00 0.00 0.00 0.00 0.00 0.00 0.01 0.01 0.01 0.00 0.00 0.00 0.00 0.00 0.00 0.00 0.00 0.00 0.00 0.01 0.02 0.02 0.04 0.06 0.07 0.08 0.09 0.08 0.05 0.04
0.00 0.00 0.00 0.00 0.00 0.00 0.00 0.00 0.00 0.00 0.00 0.00 0.00 0.00 0.00 0.00 0.00 0.00 0.00 0.00 0.00 0.00 0.00 0.00 0.00 0.00 0.01 0.02 0.01 0.00 0.00 0.00 0.00 0.00 0.00 0.00 0.00 0.00 0.00 0.01 0.02 0.03 0.04 0.06 0.06 0.06 0.07 0.06 0.04
0.00 0.00 0.00 0.00 0.00 0.00 0.00 0.00 0.00 0.00 0.00 0.00 0.00 0.00 0.00 0.00 0.00 0.00 0.00 0.00 0.00 0.00 0.00 0.00 0.00 0.00 0.00 0.01 0.02 0.02 0.01 0.00 0.00 0.00 0.00 0.00 0.00 0.00 0.00 0.00 0.01 0.01 0.03 0.05 0.06 0.05 0.05 0.07 0.06
0.00 0.00 0.00 0.00 0.00 0.00 0.00 0.00 0.00 0.00 0.00 0.00 0.00 0.00 0.00 0.00 0.00 0.00 0.00 0.00 0.00 0.00 0.00 0.00 0.01 0.01 0.00 0.00 0.01 0.03 0.02 0.01 0.00 0.00 0.00 0.00 0.00 0.00 0.00 0.00 0.00 0.01 0.03 0.05 0.06 0.06 0.05 0.06 0.07
0.00 0.00 0.00 0.00 0.00 0.00 0.00 0.00 0.00 0.00 0.00 0.00 0.00 0.00 0.00 0.00 0.00 0.00 0.00 0.00 0.00 0.00 0.00 0.00 0.00 0.01 0.01 0.00 0.01 0.02 0.02 0.02 0.01 0.00 0.00 0.00 0.00 0.00 0.00 0.00 0.00 0.01 0.03 0.05 0.06 0.07 0.06 0.05 0.06
0.00 0.00 0.00 0.00 0.00 0.00 0.00 0.00 0.00 0.00 0.00 0.00 0.00 0.00 0.00 0.00 0.00 0.00 0.00 0.00 0.00 0.00 0.00 0.00 0.00 0.01 0.01 0.01 0.01 0.01 0.02 0.02 0.01 0.00 0.00 0.00 0.00 0.00 0.00 0.00 0.00 0.01 0.02 0.04 0.05 0.05 0.05 0.05 0.05
0.00 0.00 0.00 0.00 0.00 0.00 0.00 0.00 0.00 0.00 0.00 0.00 0.00 0.00 0.00 0.00 0.00 0.00 0.00 0.00 0.00 0.00 0.00 0.00 0.00 0.00 0.01 0.01 0.01 0.01 0.02 0.02 0.01 0.01 0.00 0.00 0.00 0.00 0.00 0.00 0.00 0.01 0.01 0.03 0.04 0.04 0.05 0.05 0.06
0.00 0.00 0.00 0.00 0.00 0.00 0.00 0.00 0.00 0.00 0.00 0.00 0.00 0.00 0.00 0.00 0.00 0.00 0.00 0.00 0.00 0.00 0.00 0.00 0.00 0.00 0.01 0.01 0.01 0.01 0.01 0.01 0.01 0.01 0.01 0.00 0.00 0.00 0.00 0.00 0.00 0.00 0.01 0.02 0.03 0.03 0.04 0.06 0.07
0.00 0.00 0.00 0.00 0.00 0.00 0.00 0.00 0.00 0.00 0.00 0.00 0.00 0.00 0.00 0.00 0.00 0.00 0.00 0.00 0.00 0.00 0.00 0.00 0.00 0.00 0.00 0.01 0.01 0.01 0.01 0.01 0.02 0.02 0.01 0.00 0.00 0.00 0.00 0.00 0.00 0.00 0.01 0.02 0.03 0.03 0.04 0.05 0.06
0.00 0.00 0.00 0.00 0.00 0.00 0.00 0.00 0.00 0.00 0.00 0.00 0.00 0.00 0.00 0.00 0.00 0.00 0.00 0.00 0.00 0.00 0.00 0.00 0.00 0.00 0.00 0.00 0.00 0.01 0.01 0.01 0.02 0.02 0.02 0.01 0.00 0.00 0.00 0.00 0.00 0.00 0.01 0.02 0.03 0.03 0.04 0.04 0.05
0.00 0.00 0.00 0.00 0.00 0.00 0.00 0.00 0.00 0.00 0.00 0.00 0.00 0.00 0.00 0.00 0.00 0.00 0.00 0.00 0.00 0.00 0.00 0.00 0.00 0.00 0.00 0.00 0.00 0.00 0.01 0.01 0.01 0.02 0.03 0.02 0.01 0.00 0.00 0.00 0.00 0.00 0.01 0.02 0.03 0.03 0.04 0.05 0.05
0.00 0.00 0.00 0.00 0.00 0.00 0.00 0.00 0.00 0.00 0.00 0.00 0.00 0.00 0.00 0.00 0.00 0.00 0.00 0.00 0.00 0.00 0.00 0.00 0.00 0.00 0.00 0.00 0.00 0.00 0.00 0.01 0.01 0.01 0.02 0.03 0.02 0.00 0.00 0.00 0.00 0.00 0.01 0.02 0.03 0.04 0.04 0.05 0.06
0.00 0.00 0.00 0.00 0.00 0.00 0.00 0.00 0.00 0.00 0.00 0.00 0.00 0.00 0.00 0.00 0.00 0.00 0.00 0.00 0.00 0.00 0.00 0.00 0.00 0.00 0.00 0.00 0.00 0.00 0.00 0.00 0.01 0.01 0.01 0.02 0.02 0.01 0.00 0.00 0.00 0.00 0.01 0.02 0.03 0.04 0.05 0.05 0.06
0.00 0.00 0.00 0.00 0.00 0.00 0.00 0.00 0.00 0.00 0.00 0.00 0.00 0.00 0.00 0.00 0.00 0.00 0.00 0.00 0.00 0.00 0.00 0.00 0.00 0.00 0.00 0.00 0.00 0.00 0.00 0.00 0.00 0.01 0.01 0.02 0.02 0.01 0.01 0.00 0.00 0.00 0.01 0.02 0.03 0.04 0.04 0.06 0.07
0.00 0.00 0.00 0.00 0.00 0.00 0.00 0.00 0.00 0.00 0.00 0.00 0.00 0.00 0.00 0.00 0.00 0.00 0.00 0.00 0.00 0.00 0.00 0.00 0.00 0.00 0.00 0.00 0.00 0.00 0.00 0.00 0.01 0.01 0.01 0.02 0.02 0.02 0.01 0.01 0.01 0.02 0.03 0.04 0.04 0.05 0.05 0.05 0.07
0.00 0.00 0.00 0.00 0.00 0.00 0.00 0.00 0.00 0.00 0.00 0.00 0.00 0.00 0.00 0.00 0.00 0.00 0.00 0.00 0.00 0.00 0.00 0.00 0.01 0.01 0.01 0.00 0.00 0.00 0.00 0.01 0.01 0.01 0.01 0.02 0.03 0.03 0.02 0.01 0.02 0.02 0.04 0.05 0.05 0.05 0.05 0.05 0.06
0.00 0.00 0.00 0.00 0.00 0.00 0.00 0.00 0.00 0.00 0.00 0.00 0.00 0.00 0.00 0.00 0.00 0.00 0.00 0.00 0.00 0.00 0.00 0.00 0.00 0.01 0.01 0.01 0.01 0.01 0.00 0.01 0.01 0.01 0.00 0.02 0.04 0.04 0.03 0.02 0.03 0.04 0.04 0.04 0.05 0.05 0.05 0.04 0.04
0.01 0.01 0.01 0.01 0.01 0.01 0.00 0.00 0.00 0.00 0.00 0.00 0.00 0.00 0.00 0.00 0.00 0.00 0.00 0.00 0.00 0.00 0.00 0.00 0.00 0.01 0.01 0.01 0.01 0.01 0.01 0.01 0.01 0.00 0.00 0.01 0.05 0.06 0.04 0.02 0.02 0.03 0.04 0.04 0.04 0.04 0.04 0.04 0.03
0.01 0.01 0.02 0.01 0.01 0.00 0.00 0.00 0.00 0.00 0.00 0.00 0.00 0.00 0.00 0.00 0.00 0.00 0.00 0.00 0.00 0.00 0.00 0.00 0.00 0.01 0.01 0.01 0.01 0.01 0.01 0.00 0.00 0.00 0.00 0.01 0.04 0.06 0.04 0.03 0.02 0.02 0.03 0.04 0.04 0.02 0.01 0.02 0.03
0.01 0.01 0.01 0.01 0.00 0.00 0.00 0.00 0.00 0.00 0.00 0.00 0.00 0.00 0.00 0.01 0.00 0.00 0.00 0.00 0.00 0.00 0.00 0.00 0.00 0.00 0.01 0.01 0.01 0.01 0.01 0.00 0.00 0.00 0.00 0.01 0.03 0.04 0.04 0.03 0.02 0.02 0.03 0.04 0.03 0.02 0.01 0.01 0.02
0.01 0.01 0.01 0.01 0.01 0.00 0.00 0.00 0.00 0.00 0.00 0.00 0.00 0.00 0.00 0.01 0.00 0.00 0.00 0.00 0.00 0.00 0.00 0.00 0.00 0.00 0.00 0.01 0.01 0.01 0.01 0.01 0.00 0.00 0.00 0.01 0.02 0.03 0.03 0.02 0.01 0.02 0.03 0.03 0.02 0.02 0.02 0.02 0.02
0.00 0.00 0.01 0.02 0.01 0.00 0.00 0.00 0.00 0.00 0.00 0.00 0.00 0.00 0.01 0.01 0.01 0.00 0.00 0.00 0.00 0.00 0.00 0.00 0.00 0.00 0.00 0.01 0.01 0.01 0.01 0.01 0.01 0.01 0.01 0.01 0.02 0.02 0.01 0.01 0.01 0.02 0.03 0.02 0.01 0.01 0.02 0.03 0.02
0.00 0.01 0.01 0.02 0.01 0.00 0.00 0.00 0.00 0.00 0.00 0.00 0.00 0.00 0.00 0.01 0.01 0.00 0.00 0.00 0.00 0.00 0.00 0.00 0.00 0.00 0.00 0.00 0.00 0.01 0.01 0.02 0.02 0.02 0.01 0.02 0.02 0.01 0.01 0.01 0.01 0.01 0.02 0.01 0.01 0.01 0.01 0.02 0.02
0.01 0.01 0.01 0.02 0.02 0.01 0.00 0.00 0.00 0.00 0.00 0.00 0.00 0.00 0.00 0.01 0.01 0.01 0.00 0.00 0.00 0.00 0.00 0.01 0.01 0.00 0.00 0.00 0.00 0.00 0.01 0.01 0.02 0.01 0.02 0.01 0.02 0.02 0.01 0.01 0.02 0.02 0.02 0.02 0.02 0.02 0.02 0.03 0.03
MSLP
1012.06 1012.01 1012.13 1012.44 1012.90 1013.46 1014.02 1014.53 1014.93 1015.19 1015.36 1015.48 1015.62 1015.84 1016.18 1016.64 1017.17 1017.70 1018.14 1018.43 1018.53 1018.45 1018.22 1017.92 1017.60 1017.33 1017.13 1016.98 1016.85 1016.70 1016.47 1016.15 1015.74 1015.28 1014.82 1014.41 1014.08 1013.84 1013.67 1013.52 1013.34 1013.10 1012.77 1012.35 1011.89 1011.42 1010.99 1010.63 1010.37
1012.11 1012.12 1012.32 1012.71 1013.25 1013.87 1014.50 1015.07 1015.53 1015.85 1016.06 1016.23 1016.41 1016.65 1016.99 1017.41 1017.88 1018.33 1018.69 1018.89 1018.93 1018.79 1018.54 1018.23 1017.92 1017.66 1017.47 1017.32 1017.18 1017.00 1016.74 1016.39 1015.97 1015.52 1015.07 1014.69 1014.39 1014.17 1014.01 1013.87 1013.68 1013.42 1013.08 1012.65 1012.17 1011.69 1011.25 1010.87 1010.57
1012.20 1012.29 1012.58 1013.04 1013.64 1014.31 1014.99 1015.59 1016.08 1016.44 1016.70 1016.91 1017.11 1017.37 1017.70 1018.10 1018.51 1018.89 1019.17 1019.31 1019.28 1019.11 1018.84 1018.53 1018.23 1017.97 1017.77 1017.60 1017.43 1017.21 1016.92 1016.55 1016.13 1015.68 1015.26 1014.90 1014.62 1014.41 1014.25 1014.09 1013.88 1013.60 1013.24 1012.81 1012.36 1011.90 1011.48 1011.11 1010.80
1012.33 1012.51 1012.88 1013.40 1014.05 1014.75 1015.44 1016.06 1016.57 1016.96 1017.24 1017.48 1017.72 1017.99 1018.31 1018.67 1019.03 1019.35 1019.55 1019.63 1019.56 1019.36 1019.09 1018.78 1018.48 1018.22 1018.00 1017.81 1017.59 1017.33 1017.01 1016.62 1016.19 1015.75 1015.34 1015.00 1014.74 1014.53 1014.35 1014.16 1013.92 1013.61 1013.24 1012.83 1012.41 1012.01 1011.65 1011.33 1011.04
1012.50 1012.78 1013.23 1013.80 1014.47 1015.18 1015.86 1016.47 1016.98 1017.38 1017.69 1017.95 1018.21 1018.49 1018.80 1019.13 1019.44 1019.68 1019.82 1019.84 1019.73 1019.52 1019.25 1018.95 1018.66 1018.41 1018.17 1017.94 1017.69 1017.38 1017.02 1016.60 1016.15 1015.71 1015.32 1014.99 1014.72 1014.50 1014.29 1014.06 1013.79 1013.46 1013.09 1012.70 1012.33 1012.00 1011.71 1011.46 1011.22
1012.73 1013.12 1013.63 1014.24 1014.91 1015.60 1016.25 1016.84 1017.33 1017.73 1018.06 1018.36 1018.64 1018.93 1019.22 1019.51 1019.75 1019.92 1019.99 1019.95 1019.81 1019.59 1019.32 1019.04 1018.78 1018.53 1018.29 1018.03 1017.73 1017.37 1016.96 1016.50 1016.03 1015.59 1015.19 1014.85 1014.58 1014.34 1014.10 1013.83 1013.53 1013.18 1012.81 1012.45 1012.13 1011.87 1011.66 1011.49 1011.31
1013.08 1013.55 1014.12 1014.74 1015.40 1016.04 1016.65 1017.19 1017.66 1018.06 1018.42 1018.74 1019.04 1019.34 1019.62 1019.86 1020.04 1020.13 1020.12 1020.02 1019.84 1019.60 1019.34 1019.08 1018.84 1018.60 1018.36 1018.07 1017.74 1017.33 1016.86 1016.36 1015.86 1015.39 1014.97 1014.62 1014.33 1014.07 1013.81 1013.51 1013.18 1012.82 1012.46 1012.12 1011.83 1011.62 1011.48 1011.37 1011.25
1013.56 1014.10 1014.70 1015.33 1015.95 1016.54 1017.09 1017.59 1018.03 1018.43 1018.80 1019.15 1019.48 1019.78 1020.04 1020.23 1020.35 1020.35 1020.26 1020.09 1019.86 1019.60 1019.34 1019.10 1018.88 1018.65 1018.40 1018.10 1017.73 1017.27 1016.75 1016.20 1015.65 1015.15 1014.71 1014.34 1014.03 1013.75 1013.47 1013.16 1012.82 1012.45 1012.08 1011.75 1011.48 1011.30 1011.18 1011.12 1011.04
1014.17 1014.78 1015.40 1016.01 1016.58 1017.12 1017.61 1018.05 1018.47 1018.86 1019.25 1019.62 1019.97 1020.27 1020.51 1020.66 1020.70 1020.63 1020.45 1020.21 1019.92 1019.63 1019.36 1019.12 1018.91 1018.69 1018.44 1018.12 1017.71 1017.21 1016.64 1016.03 1015.44 1014.89 1014.43 1014.04 1013.71 1013.42 1013.13 1012.82 1012.47 1012.09 1011.72 1011.38 1011.10 1010.91 1010.80 1010.73 1010.67
1014.88 1015.54 1016.17 1016.76 1017.30 1017.78 1018.21 1018.61 1019.00 1019.38 1019.77 1020.15 1020.51 1020.81 1021.02 1021.12 1021.10 1020.95 1020.69 1020.37 1020.03 1019.70 1019.40 1019.16 1018.94 1018.71 1018.45 1018.10 1017.66 1017.12 1016.51 1015.86 1015.23 1014.65 1014.15 1013.75 1013.41 1013.11 1012.82 1012.51 1012.16 1011.78 1011.39 1011.03 1010.73 1010.50 1010.35 1010.25 1010.17
1015.64 1016.33 1016.97 1017.55 1018.06 1018.49 1018.88 1019.23 1019.59 1019.95 1020.33 1020.71 1021.06 1021.34 1021.52 1021.58 1021.49 1021.28 1020.96 1020.57 1020.17 1019.80 1019.47 1019.19 1018.95 1018.70 1018.41 1018.04 1017.57 1017.00 1016.35 1015.67 1015.01 1014.41 1013.89 1013.47 1013.13 1012.83 1012.54 1012.23 1011.88 1011.50 1011.10 1010.71 1010.36 1010.07 1009.85 1009.69 1009.57
1016.34 1017.06 1017.72 1018.30 1018.79 1019.20 1019.55 1019.88 1020.20 1020.54 1020.89 1021.24 1021.56 1021.81 1021.95 1021.96 1021.83 1021.57 1021.20 1020.77 1020.32 1019.90 1019.53 1019.21 1018.93 1018.64 1018.32 1017.91 1017.41 1016.81 1016.15 1015.46 1014.79 1014.17 1013.65 1013.21 1012.86 1012.55 1012.27 1011.96 1011.62 1011.23 1010.82 1010.40 1010.00 1009.64 1009.35 1009.11 1008.92
1016.90 1017.66 1018.34 1018.93 1019.42 1019.83 1020.17 1020.48 1020.77 1021.07 1021.38 1021.68 1021.94 1022.14 1022.24 1022.21 1022.05 1021.75 1021.36 1020.90 1020.43 1019.98 1019.57 1019.20 1018.86 1018.52 1018.14 1017.70 1017.17 1016.56 1015.89 1015.20 1014.53 1013.92 1013.39 1012.95 1012.59 1012.27 1011.98 1011.66 1011.32 1010.93 1010.51 1010.07 1009.63 1009.22 1008.85 1008.53 1008.26
1017.27 1018.04 1018.75 1019.37 1019.89 1020.32 1020.67 1020.97 1021.24 1021.49 1021.74 1021.97 1022.17 1022.30 1022.35 1022.28 1022.10 1021.80 1021.41 1020.96 1020.48 1020.01 1019.57 1019.15 1018.75 1018.34 1017.90 1017.41 1016.85 1016.23 1015.57 1014.90 1014.24 1013.65 1013.12 1012.67 1012.29 1011.95 1011.63 1011.31 1010.95 1010.56 1010.14 1009.69 1009.24 1008.79 1008.37 1007.98 1007.64
1017.45 1018.23 1018.95 1019.60 1020.16 1020.62 1021.00 1021.31 1021.56 1021.78 1021.96 1022.11 1022.23 1022.29 1022.27 1022.18 1021.98 1021.70 1021.34 1020.91 1020.46 1019.99 1019.53 1019.06 1018.60 1018.12 1017.62 1017.07 1016.48 1015.85 1015.20 1014.55 1013.92 1013.34 1012.82 1012.36 1011.95 1011.57 1011.22 1010.86 1010.49 1010.10 1009.68 1009.25 1008.80 1008.36 1007.92 1007.50 1007.10
1017.50 1018.26 1018.99 1019.66 1020.25 1020.76 1021.17 1021.50 1021.75 1021.93 1022.05 1022.12 1022.15 1022.14 1022.07 1021.94 1021.75 1021.49 1021.17 1020.80 1020.39 1019.94 1019.46 1018.97 1018.45 1017.90 1017.33 1016.73 1016.10 1015.46 1014.82 1014.19 1013.58 1013.01 1012.49 1012.00 1011.55 1011.13 1010.72 1010.32 1009.92 1009.53 1009.13 1008.73 1008.33 1007.92 1007.50 1007.07 1006.64
1017.51 1018.23 1018.93 1019.60 1020.22 1020.76 1021.21 1021.57 1021.82 1021.97 1022.05 1022.06 1022.01 1021.92 1021.80 1021.65 1021.46 1021.23 1020.96 1020.65 1020.29 1019.87 1019.40 1018.88 1018.32 1017.71 1017.07 1016.41 1015.74 1015.08 1014.44 1013.82 1013.22 1012.66 1012.12 1011.61 1011.10 1010.62 1010.14 1009.69 1009.26 1008.86 1008.49 1008.14 1007.80 1007.45 1007.09 1006.69 1006.26
1017.61 1018.24 1018.88 1019.52 1020.13 1020.69 1021.16 1021.54 1021.81 1021.97 1022.02 1021.98 1021.88 1021.74 1021.57 1021.39 1021.19 1020.99 1020.77 1020.51 1020.19 1019.81 1019.36 1018.83 1018.22 1017.56 1016.86 1016.14 1015.43 1014.74 1014.08 1013.46 1012.86 1012.29 1011.73 1011.17 1010.61 1010.05 1009.51 1009.00 1008.53 1008.13 1007.78 1007.48 1007.22 1006.95 1006.67 1006.33 1005.93
1017.89 1018.39 1018.93 1019.49 1020.05 1020.59 1021.07 1021.48 1021.77 1021.95 1022.01 1021.96 1021.83 1021.65 1021.44 1021.23 1021.03 1020.83 1020.63 1020.40 1020.12 1019.77 1019.33 1018.80 1018.17 1017.46 1016.71 1015.94 1015.18 1014.44 1013.75 1013.10 1012.49 1011.89 1011.30 1010.69 1010.07 1009.45 1008.84 1008.27 1007.76 1007.35 1007.02 1006.77 1006.57 1006.40 1006.20 1005.94 1005.59
1018.38 1018.73 1019.11 1019.54 1020.01 1020.50 1020.97 1021.39 1021.72 1021.94 1022.03 1022.01 1021.89 1021.70 1021.47 1021.23 1021.00 1020.79 1020.58 1020.36 1020.09 1019.75 1019.32 1018.78 1018.13 1017.40 1016.60 1015.78 1014.97 1014.18 1013.45 1012.76 1012.10 1011.47 1010.83 1010.18 1009.50 1008.82 1008.15 1007.53 1006.99 1006.55 1006.23 1006.01 1005.87 1005.77 1005.66 1005.48 1005.20
1019.06 1019.22 1019.42 1019.68 1020.01 1020.41 1020.84 1021.26 1021.64 1021.93 1022.10 1022.14 1022.06 1021.89 1021.66 1021.39 1021.12 1020.86 1020.61 1020.36 1020.08 1019.73 1019.29 1018.75 1018.10 1017.34 1016.52 1015.65 1014.79 1013.95 1013.15 1012.41 1011.70 1011.02 1010.33 1009.63 1008.92 1008.19 1007.48 1006.81 1006.24 1005.77 1005.44 1005.23 1005.12 1005.06 1005.01 1004.91 1004.70
1019.83 1019.80 1019.78 1019.85 1020.01 1020.29 1020.66 1021.08 1021.51 1021.89 1022.16 1022.31 1022.31 1022.19 1021.97 1021.68 1021.36 1021.04 1020.72 1020.40 1020.07 1019.69 1019.24 1018.69 1018.03 1017.27 1016.42 1015.53 1014.61 1013.71 1012.85 1012.04 1011.27 1010.53 1009.80 1009.07 1008.32 1007.57 1006.83 1006.14 1005.53 1005.04 1004.68 1004.44 1004.33 1004.28 1004.26 1004.21 1004.07
1020.58 1020.35 1020.13 1019.98 1019.96 1020.11 1020.41 1020.83 1021.31 1021.79 1022.19 1022.46 1022.58 1022.53 1022.34 1022.04 1021.67 1021.27 1020.87 1020.46 1020.06 1019.63 1019.14 1018.58 1017.92 1017.15 1016.30 1015.38 1014.43 1013.47 1012.55 1011.66 1010.83 1010.03 1009.26 1008.50 1007.74 1006.98 1006.24 1005.53 1004.90 1004.37 1003.96 1003.68 1003.52 1003.45 1003.42 1003.39 1003.31
1021.20 1020.80 1020.38 1020.03 1019.84 1019.85 1020.07 1020.48 1021.02 1021.61 1022.15 1022.57 1022.81 1022.87 1022.73 1022.43 1022.02 1021.54 1021.04 1020.53 1020.04 1019.54 1019.01 1018.43 1017.76 1017.00 1016.15 1015.21 1014.22 1013.22 1012.23 1011.27 1010.38 1009.53 1008.72 1007.95 1007.19 1006.44 1005.71 1005.01 1004.36 1003.79 1003.33 1002.98 1002.74 1002.61 1002.54 1002.51 1002.46
1021.63 1021.09 1020.50 1019.98 1019.63 1019.52 1019.68 1020.08 1020.67 1021.35 1022.03 1022.60 1022.99 1023.15 1023.08 1022.80 1022.36 1021.81 1021.21 1020.61 1020.02 1019.45 1018.87 1018.26 1017.59 1016.83 1015.97 1015.02 1014.01 1012.96 1011.91 1010.90 1009.94 1009.04 1008.21 1007.43 1006.68 1005.96 1005.25 1004.56 1003.91 1003.31 1002.78 1002.35 1002.03 1001.80 1001.67 1001.60 1001.56
1021.84 1021.22 1020.52 1019.88 1019.41 1019.20 1019.30 1019.68 1020.31 1021.08 1021.87 1022.57 1023.09 1023.37 1023.37 1023.13 1022.67 1022.08 1021.40 1020.71 1020.03 1019.38 1018.74 1018.10 1017.41 1016.64 1015.78 1014.83 1013.79 1012.70 1011.61 1010.54 1009.53 1008.59 1007.74 1006.96 1006.24 1005.54 1004.87 1004.20 1003.55 1002.92 1002.34 1001.83 1001.40 1001.08 1000.86 1000.73 1000.68
1021.90 1021.25 1020.49 1019.78 1019.24 1018.96 1019.01 1019.38 1020.02 1020.84 1021.71 1022.52 1023.15 1023.52 1023.61 1023.41 1022.96 1022.34 1021.61 1020.84 1020.09 1019.37 1018.68 1017.99 1017.27 1016.49 1015.61 1014.64 1013.58 1012.47 1011.33 1010.22 1009.17 1008.21 1007.34 1006.57 1005.86 1005.20 1004.56 1003.92 1003.27 1002.62 1001.99 1001.40 1000.88 1000.45 1000.14 999.95 999.87
1021.88 1021.25 1020.51 1019.79 1019.22 1018.90 1018.91 1019.25 1019.87 1020.71 1021.62 1022.49 1023.19 1023.64 1023.79 1023.64 1023.22 1022.60 1021.85 1021.04 1020.23 1019.44 1018.69 1017.95 1017.19 1016.37 1015.47 1014.48 1013.40 1012.26 1011.09 1009.95 1008.87 1007.89 1007.02 1006.25 1005.56 1004.93 1004.31 1003.69 1003.05 1002.38 1001.71 1001.06 1000.46 999.94 999.55 999.29 999.17
1021.87 1021.31 1020.64 1019.96 1019.40 1019.08 1019.05 1019.35 1019.93 1020.74 1021.63 1022.51 1023.24 1023.74 1023.95 1023.85 1023.48 1022.88 1022.13 1021.30 1020.46 1019.62 1018.80 1018.00 1017.19 1016.32 1015.38 1014.36 1013.25 1012.09 1010.91 1009.75 1008.66 1007.67 1006.79 1006.03 1005.35 1004.73 1004.13 1003.52 1002.87 1002.19 1001.49 1000.79 1000.13 999.55 999.08 998.76 998.59
1021.90 1021.47 1020.89 1020.30 1019.79 1019.48 1019.43 1019.68 1020.19 1020.93 1021.77 1022.60 1023.32 1023.84 1024.09 1024.05 1023.73 1023.18 1022.46 1021.64 1020.77 1019.89 1019.02 1018.15 1017.27 1016.34 1015.35 1014.29 1013.16 1011.98 1010.79 1009.63 1008.54 1007.55 1006.68 1005.91 1005.23 1004.61 1004.01 1003.39 1002.74 1002.04 1001.31 1000.58 999.87 999.24 998.72 998.36 998.14
Thickness
5702 5706 5710 5710 5707 5708 5714 5723 5726 5723 5724 5728 5731 5734 5736 5735 5732 5724 5721 5727 5727 5727 5726 5725 5724 5725 5726 5728 5729 5730 5731 5732 5734 5735 5735 5736 5737 5738 5738 5739 5739 5740 5740 5740 5739 5739 5738 5738 5738
5699 5703 5704 5704 5701 5705 5713 5722 5720 5722 5723 5721 5722 5724 5726 5724 5722 5720 5719 5719 5721 5721 5721 5720 5719 5720 5721 5722 5723 5724 5725 5726 5727 5728 5730 5731 5731 5732 5733 5734 5734 5735 5735 5735 5735 5735 5734 5734 5734
5695 5698 5698 5698 5699 5709 5715 5717 5719 5716 5716 5716 5716 5718 5719 5716 5715 5715 5715 5715 5716 5716 5715 5714 5713 5714 5715 5716 5717 5718 5719 5720 5721 5722 5723 5724 5725 5726 5727 5728 5729 5729 5730 5730 5730 5730 5730 5730 5729
5692 5692 5692 5692 5698 5707 5711 5713 5712 5708 5707 5710 5713 5710 5710 5709 5711 5711 5709 5710 5711 5711 5710 5708 5707 5708 5709 5710 5711 5711 5713 5714 5715 5716 5717 5718 5719 5720 5721 5722 5723 5723 5724 5725 5725 5726 5726 5725 5725
5687 5688 5683 5686 5695 5702 5705 5706 5706 5707 5707 5707 5708 5707 5704 5702 5704 5704 5704 5704 5705 5705 5704 5703 5701 5702 5703 5703 5704 5705 5706 5707 5708 5709 5710 5711 5712 5714 5715 5716 5717 5717 5718 5719 5719 5720 5720 5720 5720
5679 5682 5682 5687 5694 5696 5699 5700 5701 5702 5702 5700 5702 5702 5699 5697 5697 5698 5698 5698 5699 5698 5697 5696 5695 5695 5696 5697 5697 5698 5699 5700 5701 5702 5703 5704 5705 5707 5708 5709 5710 5711 5712 5712 5712 5713 5713 5713 5714
5675 5675 5681 5687 5689 5690 5693 5695 5697 5698 5697 5697 5700 5697 5694 5692 5691 5691 5692 5692 5691 5691 5691 5690 5690 5689 5689 5689 5690 5691 5692 5692 5693 5694 5695 5697 5698 5699 5700 5701 5702 5703 5704 5705 5705 5706 5707 5707 5707
5674 5673 5674 5679 5682 5686 5688 5688 5690 5692 5693 5693 5693 5694 5691 5688 5685 5685 5685 5684 5684 5684 5684 5684 5684 5683 5684 5683 5683 5683 5684 5685 5686 5686 5687 5689 5690 5691 5693 5694 5695 5696 5697 5698 5699 5700 5700 5701 5701
5665 5664 5672 5677 5678 5682 5680 5680 5680 5682 5684 5682 5685 5688 5687 5682 5679 5678 5677 5677 5677 5676 5677 5677 5677 5677 5677 5677 5676 5677 5677 5677 5678 5679 5680 5681 5683 5685 5685 5686 5687 5688 5689 5691 5692 5692 5693 5694 5695
5657 5660 5672 5673 5676 5676 5673 5675 5675 5675 5677 5677 5677 5675 5675 5674 5673 5673 5674 5674 5673 5672 5671 5671 5671 5670 5670 5670 5670 5670 5671 5671 5672 5673 5673 5675 5675 5676 5677 5678 5679 5680 5682 5683 5684 5685 5686 5687 5689
5654 5659 5663 5662 5665 5666 5666 5667 5669 5671 5673 5678 5678 5674 5670 5669 5669 5670 5671 5671 5669 5668 5665 5665 5664 5664 5664 5664 5664 5664 5664 5664 5664 5665 5666 5666 5667 5669 5670 5671 5673 5674 5675 5677 5678 5679 5679 5680 5681
5647 5651 5653 5655 5654 5656 5659 5661 5663 5667 5674 5675 5675 5671 5667 5666 5666 5667 5667 5666 5664 5662 5660 5659 5658 5657 5657 5657 5657 5657 5657 5657 5657 5657 5658 5659 5660 5661 5662 5663 5664 5666 5667 5668 5670 5670 5671 5671 5672
5640 5643 5644 5645 5645 5648 5651 5653 5657 5663 5665 5666 5665 5663 5663 5663 5663 5663 5662 5661 5659 5656 5655 5653 5652 5651 5650 5650 5650 5650 5650 5650 5650 5649 5650 5650 5652 5652 5654 5655 5655 5656 5658 5659 5661 5662 5663 5663 5664
5636 5636 5637 5639 5641 5642 5643 5649 5649 5660 5659 5658 5658 5658 5659 5659 5659 5658 5656 5655 5654 5652 5650 5648 5646 5645 5644 5644 5643 5643 5643 5642 5642 5642 5642 5642 5642 5643 5644 5645 5645 5647 5648 5649 5651 5652 5653 5654 5655
5625 5627 5630 5634 5635 5636 5636 5644 5651 5658 5654 5654 5655 5655 5654 5655 5654 5653 5652 5650 5650 5647 5645 5642 5640 5639 5638 5637 5637 5636 5636 5635 5635 5634 5634 5634 5634 5634 5634 5635 5636 5637 5637 5639 5640 5642 5643 5644 5645
5618 5621 5627 5633 5630 5629 5630 5648 5656 5652 5649 5651 5652 5653 5651 5650 5650 5649 5648 5646 5644 5642 5639 5636 5634 5632 5631 5630 5630 5630 5629 5629 5628 5627 5626 5626 5625 5625 5625 5626 5626 5626 5627 5628 5630 5631 5633 5634 5634
5613 5621 5627 5627 5623 5624 5627 5643 5650 5643 5644 5647 5649 5649 5648 5647 5646 5645 5643 5641 5638 5636 5633 5630 5627 5626 5624 5623 5622 5622 5622 5621 5620 5620 5619 5617 5616 5616 5616 5615 5615 5615 5616 5617 5618 5620 5621 5623 5623
5616 5620 5620 5623 5619 5617 5623 5636 5642 5639 5638 5644 5646 5646 5645 5644 5643 5641 5638 5635 5632 5630 5627 5624 5621 5619 5617 5616 5615 5615 5614 5614 5613 5612 5610 5609 5608 5606 5605 5605 5605 5604 5605 5605 5606 5608 5608 5610 5611
5610 5611 5614 5615 5608 5609 5620 5629 5637 5639 5636 5639 5642 5643 5642 5642 5639 5636 5633 5630 5626 5623 5620 5618 5615 5613 5610 5609 5609 5608 5608 5607 5605 5604 5602 5601 5599 5596 5595 5594 5593 5592 5593 5593 5594 5595 5597 5598 5598
5596 5599 5605 5603 5597 5602 5612 5622 5633 5636 5637 5639 5640 5641 5640 5638 5635 5631 5628 5625 5622 5618 5615 5612 5609 5606 5604 5603 5602 5601 5599 5599 5597 5595 5594 5592 5590 5587 5585 5583 5582 5581 5581 5582 5582 5583 5584 5586 5585
5588 5594 5599 5596 5591 5591 5598 5622 5633 5635 5633 5633 5634 5636 5636 5634 5631 5628 5623 5620 5616 5613 5609 5605 5602 5599 5597 5595 5593 5591 5590 5590 5589 5588 5587 5584 5582 5579 5576 5574 5573 5572 5571 5572 5572 5572 5573 5574 5574
5582 5583 5583 5582 5586 5595 5593 5612 5636 5634 5630 5629 5630 5631 5632 5629 5627 5624 5620 5616 5611 5607 5602 5599 5595 5592 5590 5587 5586 5586 5585 5585 5584 5582 5579 5577 5574 5571 5569 5566 5565 5563 5562 5562 5562 5561 5561 5561 5562
5572 5569 5571 5574 5577 5580 5586 5589 5628 5626 5627 5630 5630 5628 5627 5624 5622 5619 5615 5611 5606 5600 5595 5592 5588 5585 5582 5580 5579 5578 5578 5578 5576 5573 5571 5569 5566 5564 5561 5558 5557 5555 5553 5553 5552 5551 5551 5550 5550
5554 5556 5557 5561 5568 5571 5586 5589 5618 5625 5625 5628 5627 5624 5621 5619 5616 5613 5609 5603 5599 5593 5588 5584 5581 5578 5575 5573 5571 5570 5570 5569 5567 5566 5564 5562 5559 5557 5554 5550 5548 5547 5545 5544 5543 5542 5541 5540 5539
5549 5557 5558 5559 5561 5580 5579 5581 5611 5622 5619 5619 5618 5618 5616 5613 5610 5606 5602 5598 5592 5587 5582 5578 5575 5572 5569 5566 5564 5563 5562 5561 5560 5559 5557 5554 5552 5549 5546 5542 5540 5539 5537 5535 5534 5533 5533 5532 5530
5549 5556 5562 5568 5577 5586 5566 5581 5610 5609 5606 5606 5607 5608 5607 5605 5603 5599 5596 5592 5587 5581 5577 5573 5570 5567 5563 5560 5558 5557 5555 5553 5552 5550 5548 5546 5544 5542 5538 5534 5532 5530 5529 5527 5526 5525 5524 5522 5521
5539 5547 5552 5554 5550 5565 5582 5586 5599 5601 5598 5597 5598 5599 5599 5597 5595 5591 5588 5584 5580 5576 5572 5568 5565 5562 5558 5555 5552 5550 5548 5545 5543 5541 5539 5537 5535 5533 5530 5527 5525 5523 5520 5518 5517 5516 5515 5513 5511
5532 5538 5535 5541 5552 5568 5580 5584 5598 5597 5593 5592 5591 5591 5591 5588 5585 5583 5580 5576 5572 5569 5565 5562 5559 5556 5552 5548 5545 5543 5540 5537 5535 5533 5531 5530 5527 5525 5523 5520 5517 5515 5513 5510 5508 5507 5506 5503 5501
5516 5520 5530 5538 5545 5561 5574 5587 5590 5588 5586 5584 5583 5583 5582 5580 5577 5575 5572 5568 5564 5561 5558 5555 5552 5549 5546 5543 5539 5536 5533 5529 5526 5525 5524 5521 5519 5516 5514 5512 5510 5507 5505 5503 5501 5499 5497 5494 5493
5513 5520 5523 5532 5531 5540 5561 5575 5576 5572 5572 5572 5573 5572 5571 5569 5568 5566 5563 5560 5556 5553 5551 5548 5545 5542 5539 5535 5532 5529 5525 5521 5518 5517 5515 5512 5510 5508 5506 5504 5501 5500 5498 5495 5493 5491 5488 5486 5484